Date String (YYYY-MM-DD hh:mm:ss) UTC,Instrument flags,Ambient pressure (hPa),Sample flow (lpm),Bypass flow (lpm),Sample temperature (°C),Ambient temperature (°C),ASC tube jacket temperature (°C),LED temperature (°C),Box temperature (°C),Sample RH (%),Span deviation,Mass concentration (μg/m³),Mass concentration (μg/m³),Mass concentration (μg/m³)
DateTimeUTC,F1_M11,P_M11,Q1_M11,Q2_M11,T1_M11,T2_M11,T3_M11,T4_M11,T5_M11,U1_M11,ZSPAN_M11,X0_M11,X2_M11,X1_M11
2022-03-01 12:00:00,,0828.0,5.01,0.00,24.8,24.0,00.0,34.0,26.6,08.8,0000.0,0002.04,0000.99,0000.63
2022-03-01 12:01:00,,0828.0,5.00,0.00,24.8,24.1,00.0,34.0,26.6,08.8,0000.0,0002.14,0001.02,0000.64
2022-03-01 12:02:00,,0828.0,4.99,0.00,24.8,24.1,00.0,34.0,26.6,08.9,0000.0,0002.08,0001.03,0000.63
2022-03-01 12:03:00,,0828.0,5.00,0.00,24.8,24.1,00.0,33.9,26.6,08.8,0000.0,0001.77,0001.05,0000.63
2022-03-01 12:04:00,,0828.0,5.00,0.00,24.8,24.1,00.0,33.9,26.6,08.9,0000.0,0001.77,0001.05,0000.64
2022-03-01 12:05:00,,0828.1,5.00,0.00,24.8,24.1,00.0,33.9,26.6,08.9,0000.0,0001.71,0001.03,0000.63
2022-03-01 12:06:00,,0828.2,5.01,0.00,24.8,24.1,00.0,33.9,26.7,08.9,0000.0,0001.70,0001.01,0000.63
2022-03-01 12:07:00,,0828.2,5.00,0.00,24.8,24.2,00.0,33.9,26.7,08.9,0000.0,0001.72,0001.04,0000.63
2022-03-01 12:08:00,,0827.9,4.98,0.00,24.9,24.2,00.0,33.9,26.7,08.9,0000.0,0001.70,0001.04,0000.63
2022-03-01 12:09:00,,0827.9,5.01,0.00,24.9,24.3,00.0,33.9,26.7,08.9,0000.0,0001.64,0001.01,0000.63
2022-03-01 12:10:00,,0828.0,5.01,0.00,24.9,24.3,00.0,33.9,26.7,08.8,0000.0,0001.66,0000.98,0000.64
2022-03-01 12:11:00,,0828.1,5.00,0.00,24.9,24.4,00.0,33.9,26.8,08.8,0000.0,0001.61,0000.95,0000.63
2022-03-01 12:12:00,,0828.1,4.99,0.00,25.0,24.4,00.0,33.9,26.8,08.8,0000.0,0001.46,0000.90,0000.63
2022-03-01 12:13:00,,0828.1,5.01,0.00,25.0,24.4,00.0,33.9,26.8,08.8,0000.0,0001.49,0000.93,0000.63
2022-03-01 12:14:00,,0828.0,5.00,0.00,25.0,24.4,00.0,33.9,26.8,08.9,0000.0,0001.51,0000.94,0000.64
2022-03-01 12:15:00,,0828.1,4.99,0.00,25.0,24.4,00.0,34.0,26.9,09.3,0000.0,0001.53,0000.94,0000.63
2022-03-01 12:16:00,,0828.1,5.00,0.00,25.0,24.4,00.0,34.0,26.9,09.0,0000.0,0001.57,0000.95,0000.63
2022-03-01 12:17:00,,0828.1,5.01,0.00,25.1,24.5,00.0,34.0,26.9,09.0,0000.0,0001.61,0000.93,0000.64
2022-03-01 12:18:00,,0828.1,4.99,0.00,25.1,24.5,00.0,34.0,26.9,09.4,0000.0,0002.00,0000.91,0000.65
2022-03-01 12:19:00,,0828.1,5.00,0.00,25.1,24.5,00.0,34.0,26.9,09.2,0000.0,0001.97,0000.90,0000.65
2022-03-01 12:20:00,,0828.2,5.01,0.00,25.1,24.5,00.0,34.0,26.9,09.1,0000.0,0001.95,0000.90,0000.66
2022-03-01 12:21:00,,0828.2,5.00,0.00,25.1,24.5,00.0,34.0,26.9,09.1,0000.0,0001.89,0000.91,0000.66
2022-03-01 12:22:00,,0828.2,4.99,0.00,25.1,24.5,00.0,34.0,27.0,09.1,0000.0,0002.31,0000.97,0000.67
2022-03-01 12:23:00,,0828.2,5.01,0.00,25.1,24.5,00.0,34.1,27.0,09.1,0000.0,0002.53,0001.02,0000.67
2022-03-01 12:24:00,,0828.2,5.01,0.00,25.1,24.5,00.0,34.1,27.0,09.0,0000.0,0002.81,0001.06,0000.67
2022-03-01 12:25:00,,0828.3,4.99,0.00,25.1,24.5,00.0,34.1,27.0,09.0,0000.0,0002.77,0001.02,0000.68
2022-03-01 12:26:00,,0828.2,5.00,0.00,25.1,24.5,00.0,34.1,27.0,09.0,0000.0,0002.86,0001.06,0000.69
2022-03-01 12:27:00,,0828.2,5.00,0.00,25.1,24.5,00.0,34.1,27.0,08.9,0000.0,0003.10,0001.12,0000.70
2022-03-01 12:28:00,,0828.2,5.01,0.00,25.2,24.5,00.0,34.1,27.0,08.9,0000.0,0003.06,0001.12,0000.69
2022-03-01 12:29:00,,0828.2,5.01,0.00,25.2,24.5,00.0,34.1,27.0,08.8,0000.0,0002.52,0001.10,0000.69
2022-03-01 12:30:00,,0828.3,4.99,0.00,25.2,24.5,00.0,34.1,27.0,08.8,0000.0,0002.67,0001.13,0000.70
2022-03-01 12:31:00,,0828.2,5.01,0.00,25.2,24.5,00.0,34.1,27.0,08.8,0000.0,0002.70,0001.14,0000.70
2022-03-01 12:32:00,,0828.3,5.01,0.00,25.2,24.5,00.0,34.1,27.0,08.8,0000.0,0002.77,0001.17,0000.70
2022-03-01 12:33:00,,0828.3,5.00,0.00,25.2,24.5,00.0,34.1,27.0,08.8,0000.0,0002.49,0001.15,0000.70
2022-03-01 12:34:00,,0828.3,4.99,0.00,25.2,24.5,00.0,34.1,27.0,08.8,0000.0,0002.42,0001.16,0000.70
2022-03-01 12:35:00,,0828.3,5.00,0.00,25.2,24.5,00.0,34.1,27.0,08.8,0000.0,0002.19,0001.12,0000.70
2022-03-01 12:36:00,,0828.3,5.00,0.00,25.2,24.5,00.0,34.1,27.0,08.9,0000.0,0002.19,0001.13,0000.71
2022-03-01 12:37:00,,0828.3,5.01,0.00,25.2,24.5,00.0,34.2,27.0,08.9,0000.0,0002.31,0001.14,0000.70
2022-03-01 12:38:00,,0828.4,4.99,0.00,25.2,24.5,00.0,34.2,27.0,08.7,0000.0,0002.38,0001.17,0000.71
2022-03-01 12:39:00,,0828.4,4.99,0.00,25.2,24.5,00.0,34.2,27.0,08.6,0000.0,0002.47,0001.21,0000.72
2022-03-01 12:40:00,,0828.4,5.01,0.00,25.1,24.5,00.0,34.2,27.0,08.7,0000.0,0002.65,0001.28,0000.73
2022-03-01 12:41:00,,0828.5,5.01,0.00,25.1,24.5,00.0,34.2,26.9,08.9,0000.0,0003.48,0001.34,0000.73
2022-03-01 12:42:00,,0829.0,5.00,0.00,25.1,24.4,00.0,34.2,26.9,08.9,0000.0,0003.91,0001.38,0000.72
2022-03-01 12:43:00,,0828.9,5.00,0.00,25.1,24.4,00.0,34.2,26.9,08.9,0000.0,0004.01,0001.41,0000.72
2022-03-01 12:44:00,,0829.0,5.00,0.00,25.1,24.4,00.0,34.2,26.9,08.9,0000.0,0004.16,0001.47,0000.73
2022-03-01 12:45:00,,0829.0,5.00,0.00,25.1,24.4,00.0,34.1,26.9,08.8,0000.0,0004.36,0001.48,0000.73
2022-03-01 12:46:00,,0829.0,5.00,0.00,25.1,24.4,00.0,34.1,26.9,09.2,0000.0,0004.33,0001.52,0000.74
2022-03-01 12:47:00,,0829.1,4.97,0.00,25.1,24.4,00.0,34.1,26.9,09.1,0000.0,0004.55,0001.58,0000.75
2022-03-01 12:48:00,,0829.0,5.02,0.00,25.1,24.4,00.0,34.1,26.9,09.0,0000.0,0004.79,0001.64,0000.75
2022-03-01 12:49:00,,0829.1,5.01,0.00,25.1,24.4,00.0,34.1,26.9,08.9,0000.0,0004.73,0001.65,0000.75
2022-03-01 12:50:00,,0828.8,4.98,0.00,25.1,24.4,00.0,34.1,26.9,08.8,0000.0,0004.77,0001.66,0000.75
2022-03-01 12:51:00,,0828.5,5.01,0.00,25.1,24.4,00.0,34.1,26.9,08.9,0000.0,0004.84,0001.68,0000.76
2022-03-01 12:52:00,,0828.6,5.01,0.00,25.1,24.4,00.0,34.1,26.9,09.0,0000.0,0004.56,0001.71,0000.75
2022-03-01 12:53:00,,0828.7,5.00,0.00,25.1,24.4,00.0,34.1,26.9,09.0,0000.0,0004.28,0001.76,0000.76
2022-03-01 12:54:00,,0828.7,4.99,0.00,25.1,24.4,00.0,34.1,26.9,09.0,0000.0,0004.31,0001.79,0000.78
2022-03-01 12:55:00,,0828.7,5.00,0.00,25.1,24.4,00.0,34.1,26.9,09.1,0000.0,0004.22,0001.77,0000.78
2022-03-01 12:56:00,,0828.7,5.00,0.00,25.1,24.4,00.0,34.1,26.9,08.9,0000.0,0003.99,0001.75,0000.79
2022-03-01 12:57:00,,0828.7,5.01,0.00,25.1,24.4,00.0,34.1,26.8,08.9,0000.0,0003.98,0001.73,0000.79
2022-03-01 12:58:00,,0828.7,5.00,0.00,25.0,24.3,00.0,34.1,26.8,09.1,0000.0,0003.72,0001.66,0000.79
2022-03-01 12:59:00,,0828.7,4.99,0.00,25.0,24.3,00.0,34.1,26.8,09.2,0000.0,0003.74,0001.68,0000.79
